When you browse on this site, cookies collect data to enhance your experience and personalize the content and advertising you see.
Visit our Privacy Policy to learn more. By continuing to use the site, you agree to this use of cookies and data.
  • In Romania
  • List of Countries
  • For 7 days
  • Water Temperature
  • Satellite Maps
  • Weather Map
  • Weather Widgets
  • user-avatar
    Login

    Hourly Weather Tacna

    Today, 19 July, Friday

    Time Temperature Precipitation Wind Pressure Humidity
    00:00 +16°C° 0 mm 1 mps 704 mmHg 72%
    01:00 +16°C° 0 mm 1 mps 704 mmHg 72%
    02:00 +15°C° 0 mm 1 mps 703 mmHg 72%
    03:00 +14°C° 0 mm 0 mps 703 mmHg 73%
    04:00 +14°C° 0 mm 0 mps 702 mmHg 74%
    05:00 +15°C° 0 mm 1 mps 703 mmHg 71%
    06:00 +16°C° 0 mm 1 mps 703 mmHg 68%
    07:00 +18°C° 0 mm 1 mps 704 mmHg 65%
    08:00 +19°C° 0 mm 1 mps 704 mmHg 60%
    09:00 +20°C° 0 mm 2 mps 704 mmHg 55%
    10:00 +23°C° 0 mm 2 mps 704 mmHg 49%
    11:00 +24°C° 0 mm 2 mps 703 mmHg 47%
    12:00 +24°C° 0 mm 3 mps 703 mmHg 46%
    13:00 +25°C° 0 mm 3 mps 702 mmHg 44%
    14:00 +24°C° 0 mm 3 mps 702 mmHg 48%
    15:00 +22°C° 0 mm 3 mps 702 mmHg 51%
    16:00 +21°C° 0 mm 2 mps 701 mmHg 55%
    17:00 +20°C° 0 mm 2 mps 702 mmHg 61%
    18:00 +19°C° 0 mm 1 mps 702 mmHg 67%
    19:00 +16°C° 0 mm 1 mps 702 mmHg 73%
    20:00 +16°C° 0 mm 1 mps 703 mmHg 72%
    21:00 +15°C° 0 mm 0 mps 703 mmHg 72%
    22:00 +15°C° 0 mm 0 mps 703 mmHg 71%
    23:00 +15°C° 0 mm 0 mps 703 mmHg 71%

    Tomorrow, 20 July, Saturday

    Time Temperature Precipitation Wind Pressure Humidity
    00:00 +15°C° 0 mm 0 mps 702 mmHg 70%
    01:00 +15°C° 0 mm 0 mps 702 mmHg 70%
    02:00 +14°C° 0 mm 0 mps 702 mmHg 71%
    03:00 +15°C° 0 mm 1 mps 702 mmHg 73%
    04:00 +14°C° 0 mm 1 mps 702 mmHg 75%
    05:00 +15°C° 0 mm 1 mps 702 mmHg 70%
    06:00 +16°C° 0 mm 1 mps 702 mmHg 65%
    07:00 +18°C° 0 mm 1 mps 702 mmHg 60%
    08:00 +20°C° 0 mm 1 mps 703 mmHg 54%
    09:00 +21°C° 0 mm 2 mps 703 mmHg 48%
    10:00 +24°C° 0 mm 2 mps 703 mmHg 43%
    11:00 +24°C° 0 mm 3 mps 703 mmHg 44%
    12:00 +24°C° 0 mm 3 mps 702 mmHg 45%
    13:00 +24°C° 0 mm 3 mps 701 mmHg 46%
    14:00 +24°C° 0 mm 3 mps 701 mmHg 48%
    15:00 +22°C° 0 mm 3 mps 701 mmHg 51%
    16:00 +23°C° 0 mm 2 mps 701 mmHg 53%
    17:00 +20°C° 0 mm 2 mps 701 mmHg 60%
    18:00 +19°C° 0 mm 1 mps 702 mmHg 68%
    19:00 +15°C° 0 mm 0 mps 702 mmHg 75%
    20:00 +15°C° 0 mm 0 mps 703 mmHg 75%
    21:00 +15°C° 0 mm 0 mps 703 mmHg 74%
    22:00 +15°C° 0 mm 0 mps 703 mmHg 74%
    23:00 +14°C° 0 mm 0 mps 703 mmHg 74%

    Day after tomorrow, 21 July, Sunday

    Time Temperature Precipitation Wind Pressure Humidity
    00:00 +14°C° 0 mm 0 mps 703 mmHg 75%
    01:00 +14°C° 0 mm 0 mps 703 mmHg 76%
    02:00 +13°C° 0 mm 0 mps 703 mmHg 76%
    03:00 +13°C° 0 mm 0 mps 702 mmHg 77%
    04:00 +13°C° 0 mm 0 mps 702 mmHg 77%
    05:00 +13°C° 0 mm 0 mps 703 mmHg 75%
    06:00 +14°C° 0 mm 0 mps 703 mmHg 73%
    07:00 +15°C° 0 mm 0 mps 704 mmHg 71%
    08:00 +19°C° 0 mm 1 mps 704 mmHg 64%
    09:00 +20°C° 0 mm 2 mps 704 mmHg 58%
    10:00 +21°C° 0 mm 2 mps 705 mmHg 51%
    11:00 +22°C° 0 mm 3 mps 704 mmHg 50%
    12:00 +22°C° 0 mm 3 mps 704 mmHg 49%
    13:00 +23°C° 0 mm 4 mps 703 mmHg 48%
    14:00 +22°C° 0 mm 3 mps 703 mmHg 53%
    15:00 +21°C° 0 mm 3 mps 702 mmHg 59%
    16:00 +19°C° 0 mm 2 mps 702 mmHg 64%
    17:00 +18°C° 0 mm 2 mps 702 mmHg 68%
    18:00 +18°C° 0 mm 1 mps 703 mmHg 72%
    19:00 +16°C° 0 mm 1 mps 703 mmHg 77%
    20:00 +16°C° 0 mm 1 mps 704 mmHg 76%
    21:00 +15°C° 0 mm 0 mps 704 mmHg 76%
    22:00 +15°C° 0 mm 0 mps 704 mmHg 76%
    23:00 +15°C° 0 mm 0 mps 704 mmHg 76%

    22 July, Monday

    Time Temperature Precipitation Wind Pressure Humidity
    00:00 +14°C° 0 mm 0 mps 704 mmHg 76%
    01:00 +14°C° 0 mm 0 mps 704 mmHg 77%
    02:00 +14°C° 0 mm 0 mps 703 mmHg 77%
    03:00 +14°C° 0 mm 0 mps 703 mmHg 77%
    04:00 +14°C° 0 mm 0 mps 703 mmHg 76%
    05:00 +14°C° 0 mm 0 mps 703 mmHg 75%
    06:00 +14°C° 0 mm 0 mps 704 mmHg 74%
    07:00 +15°C° 0 mm 0 mps 704 mmHg 72%
    08:00 +18°C° 0 mm 1 mps 704 mmHg 69%
    09:00 +18°C° 0 mm 2 mps 704 mmHg 65%
    10:00 +19°C° 0 mm 3 mps 704 mmHg 62%
    11:00 +19°C° 0 mm 3 mps 703 mmHg 61%
    12:00 +19°C° 0 mm 3 mps 703 mmHg 60%
    13:00 +20°C° 0 mm 3 mps 702 mmHg 59%
    14:00 +19°C° 0 mm 3 mps 702 mmHg 64%
    15:00 +18°C° 0 mm 3 mps 702 mmHg 69%
    16:00 +17°C° 0 mm 3 mps 702 mmHg 74%
    17:00 +16°C° 0 mm 2 mps 702 mmHg 77%
    18:00 +16°C° 0 mm 1 mps 702 mmHg 79%
    19:00 +14°C° 0 mm 0 mps 703 mmHg 81%
    20:00 +15°C° 0 mm 1 mps 703 mmHg 81%
    21:00 +15°C° 0 mm 1 mps 703 mmHg 81%
    22:00 +15°C° 0 mm 1 mps 704 mmHg 81%
    23:00 +15°C° 0 mm 1 mps 703 mmHg 81%

    23 July, Tuesday

    Time Temperature Precipitation Wind Pressure Humidity
    00:00 +14°C° 0 mm 1 mps 703 mmHg 81%
    01:00 +14°C° 0 mm 1 mps 703 mmHg 81%
    02:00 +14°C° 0 mm 1 mps 703 mmHg 81%
    03:00 +14°C° 0 mm 1 mps 703 mmHg 81%
    04:00 +14°C° 0 mm 1 mps 703 mmHg 80%
    05:00 +14°C° 0 mm 1 mps 703 mmHg 80%
    06:00 +14°C° 0 mm 1 mps 704 mmHg 79%
    07:00 +15°C° 0 mm 1 mps 704 mmHg 78%
    08:00 +15°C° 0 mm 1 mps 704 mmHg 75%
    09:00 +16°C° 0 mm 2 mps 704 mmHg 71%
    10:00 +17°C° 0 mm 3 mps 704 mmHg 68%
    11:00 +17°C° 0 mm 3 mps 703 mmHg 69%
    12:00 +16°C° 0 mm 3 mps 703 mmHg 71%
    13:00 +16°C° 0 mm 3 mps 702 mmHg 72%
    14:00 +16°C° 0 mm 3 mps 702 mmHg 72%
    15:00 +16°C° 0 mm 2 mps 702 mmHg 73%
    16:00 +16°C° 0 mm 2 mps 702 mmHg 74%
    17:00 +15°C° 0 mm 2 mps 703 mmHg 74%
    18:00 +15°C° 0 mm 1 mps 703 mmHg 74%
    19:00 +15°C° 0 mm 1 mps 704 mmHg 75%
    20:00 +15°C° 0 mm 1 mps 704 mmHg 75%
    21:00 +15°C° 0 mm 1 mps 704 mmHg 76%
    22:00 +14°C° 0 mm 1 mps 705 mmHg 77%
    23:00 +14°C° 0 mm 1 mps 704 mmHg 77%

    24 July, Wednesday

    Time Temperature Precipitation Wind Pressure Humidity
    00:00 +14°C° 0 mm 1 mps 704 mmHg 78%
    01:00 +14°C° 0 mm 1 mps 704 mmHg 79%
    02:00 +14°C° 0 mm 1 mps 704 mmHg 79%
    03:00 +14°C° 0 mm 1 mps 704 mmHg 79%
    04:00 +13°C° 0 mm 1 mps 704 mmHg 79%
    05:00 +14°C° 0 mm 1 mps 704 mmHg 78%
    06:00 +14°C° 0 mm 1 mps 704 mmHg 77%
    07:00 +14°C° 0 mm 1 mps 705 mmHg 76%
    08:00 +16°C° 0 mm 1 mps 705 mmHg 69%
    09:00 +17°C° 0 mm 2 mps 705 mmHg 63%
    10:00 +18°C° 0 mm 2 mps 705 mmHg 57%
    11:00 +19°C° 0 mm 3 mps 704 mmHg 55%
    12:00 +19°C° 0 mm 3 mps 704 mmHg 54%
    13:00 +20°C° 0 mm 4 mps 703 mmHg 53%
    14:00 +19°C° 0 mm 3 mps 703 mmHg 57%
    15:00 +18°C° 0 mm 3 mps 703 mmHg 61%
    16:00 +17°C° 0 mm 2 mps 703 mmHg 66%
    17:00 +16°C° 0 mm 2 mps 704 mmHg 70%
    18:00 +15°C° 0 mm 1 mps 704 mmHg 74%
    19:00 +14°C° 0 mm 1 mps 705 mmHg 78%
    20:00 +14°C° 0 mm 1 mps 705 mmHg 78%
    21:00 +14°C° 0 mm 1 mps 705 mmHg 77%
    22:00 +14°C° 0 mm 1 mps 706 mmHg 77%
    23:00 +14°C° 0 mm 1 mps 705 mmHg 75%
    Show more